Tracking 17844 objects as of 27-August-2016
HD Live streaming from Space Station
objects crossing your sky now

COSMOS 2251 DEB

Track COSMOS 2251 DEB now!
10-day predictions


NORAD ID: 34131
Int'l Code: 1993-036LC
Perigee: 701.2 km
Apogee: 714.0 km
Inclination: 74.1 °
Period: 98.8 minutes
Semi major axis: 7078 km
RCS: 0.018 m2 (small)
Launch date: June 16, 1993
Source: Commonwealth of Independent States (former USSR) (CIS)
Launch site: PLESETSK MISSILE AND SPACE COMPLEX (PKMTR)

Note: This is SATELLITE DEBRIS
Your satellite tracking list
Your tracking list is empty





NASA's NSSDC Master Catalog

Two Line Element Set (TLE):
1 34131U 93036LC  16238.73590186 +.00001562 +00000-0 +34787-3 0  9998
2 34131 074.1222 336.9712 0009023 063.0897 089.1401 14.57742255396520
Source of the keplerian elements: AFSPC

N2YO: 480